Location: Unspecified
(0.0000°N, 0.0000°E)
Time: 10:10:39
(UTC+00:00)

Vanguard 2 - Pass Details

Date: 21 October 2021
Orbit: 554 x 2936 km, 32.9° (Epoch: 06 December)

Event Time Altitude Azimuth Distance (km) Brightness Sun altitude
Rises 15:50:19 0° 222° (SW) 4,764 12.4 28.0°
Maximum altitude 16:00:09 10° 176° (S) 4,687 11.7 25.6°
Drops below altitude 10° 16:00:18 10° 175° (S) 4,699 11.7 25.6°
Sets 16:13:05 0° 133° (SE) 6,508 11.9 22.4°
